Location: Decatur Area Astronomy Club
(40.0275°N, 88.7810°W)
Time: 14:18:18
(UTC-05:00)

Amateur Radio Satellites - All Passes

Search period start: 21 September 2017 13:48
Search period end: 22 September 2017 13:48
Location: Decatur Area Astronomy Club, 40.0275°N, 88.7810°W

Satellite Date Start Highest point End Downlink Frequencies (MHz)
Time Altitude Azimuth
YUBILEINY 21 Sep 13:54:50 14:03:10 49° 284° (WNW) 14:11:33 435.215
AO-7 21 Sep 13:59:07 14:05:44 27° 56° (NE) 14:12:20 .
Oscar 19 21 Sep 14:02:10 14:07:15 55° 260° (W) 14:12:22 437.125/150
SPROUT 21 Sep 14:03:35 14:07:29 35° 289° (WNW) 14:11:22 437.525
O/OREOS (USA 219) 21 Sep 14:08:29 14:11:57 21° 259° (WSW) 14:15:25 437.305
SO-50 21 Sep 14:17:49 14:21:49 32° 114° (ESE) 14:25:49 436.795
NO-84 21 Sep 14:22:24 14:26:12 66° 318° (NW) 14:29:42 435.350 FM
PCSat 21 Sep 14:25:03 14:29:04 22° 106° (ESE) 14:33:06 145.827
50 SAT 21 Sep 14:51:02 14:53:56 29° 288° (WNW) 14:56:50 437.505
BEESAT 21 Sep 14:55:02 14:56:09 11° 90° (E) 14:57:15 436.000
UKube-1 21 Sep 14:59:40 15:03:58 74° 285° (WNW) 15:08:14 .
DX 1 21 Sep 15:01:27 15:05:35 45° 288° (WNW) 15:09:42 434.975-435.025
ITAMSAT 1 21 Sep 15:01:53 15:06:35 37° 68° (ENE) 15:11:18 435.822/435.867
Gurwin Techsat 1B 21 Sep 15:07:50 15:11:48 21° 267° (W) 15:15:47 435.225
MOZHAYETS 4 21 Sep 15:45:46 15:50:08 38° 98° (E) 15:54:26
AO-7 21 Sep 15:49:28 15:57:47 71° 255° (WSW) 16:06:07 .
ITUPSAT 1 21 Sep 15:51:22 15:55:58 43° 99° (E) 16:00:31 437.325
RS-15 21 Sep 15:57:17 16:08:58 64° 246° (WSW) 16:20:00 29.354- 29.394
SO-50 21 Sep 15:58:22 16:02:15 28° 311° (NW) 16:06:10 436.795
NO-84 21 Sep 16:02:24 16:04:05 13° 335° (NNW) 16:05:43 435.350 FM
PCSat 21 Sep 16:06:47 16:12:03 51° 303° (WNW) 16:17:22 145.827
CUBESAT XI-V 21 Sep 16:07:11 16:09:22 13° 90° (E) 16:11:32 437.345
DOVE 4 21 Sep 16:15:36 16:18:06 15° 66° (ENE) 16:20:34 437.250
BEESAT 21 Sep 16:29:37 16:34:25 75° 285° (WNW) 16:39:11 436.000
ITAMSAT 1 21 Sep 16:41:48 16:46:05 26° 265° (W) 16:50:23 435.822/435.867
KAITUO 1B 21 Sep 17:16:14 17:17:40 12° 65° (ENE) 17:19:06 145.475/437.950
MOZHAYETS 4 21 Sep 17:23:32 17:27:00 21° 294° (WNW) 17:30:26
ITUPSAT 1 21 Sep 17:29:56 17:33:28 21° 295° (WNW) 17:36:59 437.325
XW-2D 21 Sep 17:37:42 17:41:04 29° 71° (ENE) 17:44:27 145.860 - 145.880
CUBESAT XI-V 21 Sep 17:42:32 17:47:06 58° 286° (WNW) 17:51:36 437.345
HO-68 21 Sep 17:46:48 17:51:59 22° 58° (ENE) 17:57:12 435.675
AO-7 21 Sep 17:49:07 17:51:52 12° 272° (W) 17:54:37 .
XW-2B 21 Sep 17:49:43 17:53:18 39° 73° (ENE) 17:56:55 145.730 - 145.750
DOVE 4 21 Sep 17:51:05 17:55:28 49° 260° (W) 17:59:39 437.250
XW-2F 21 Sep 17:51:40 17:55:14 39° 73° (ENE) 17:58:51 145.980 - 146.000
CUTE 1.7 + AOD 2 21 Sep 17:56:30 17:56:58 10° 62° (ENE) 17:57:28 437.475
KKS-1 21 Sep 17:59:51 18:04:19 74° 103° (ESE) 18:08:44 437.445
XW-2C 21 Sep 18:10:38 18:14:28 77° 76° (ENE) 18:18:20 145.795 - 145.815
CUTE-I 21 Sep 18:11:30 18:16:45 66° 74° (ENE) 18:22:02 437.470
RS-15 21 Sep 18:15:21 18:18:41 12° 267° (W) 18:22:00 29.354- 29.394
LilacSat-2 21 Sep 18:20:03 18:23:54 75° 257° (WSW) 18:27:48 437.200
NUDT-PHONESAT 21 Sep 18:22:43 18:26:27 76° 76° (ENE) 18:30:13 437.300
STARS 21 Sep 18:30:57 18:35:20 65° 101° (E) 18:39:42 437.465
KAITUO 1B 21 Sep 18:47:32 18:51:12 48° 261° (W) 18:54:54 145.475/437.950
SEEDS 21 Sep 19:04:50 19:08:43 36° 72° (ENE) 19:12:36 437.485
ZACube-1 21 Sep 19:05:46 19:06:24 10° 61° (ENE) 19:07:03 437.345
XW-2D 21 Sep 19:12:36 19:15:16 18° 266° (W) 19:17:57 145.860 - 145.880
XW-2A 21 Sep 19:14:08 19:17:03 27° 71° (ENE) 19:19:59 145.665 - 145.685
XW-2B 21 Sep 19:25:43 19:27:39 13° 268° (W) 19:29:35 145.730 - 145.750
XW-2F 21 Sep 19:27:38 19:29:32 13° 268° (W) 19:31:26 145.980 - 146.000
CUTE 1.7 + AOD 2 21 Sep 19:27:53 19:32:10 74° 259° (WSW) 19:36:28 437.475
HO-68 21 Sep 19:31:52 19:39:00 73° 256° (WSW) 19:46:10 435.675
CUBEBUG 2 21 Sep 19:33:18 19:37:28 67° 75° (ENE) 19:41:47 437.445
AAUSAT CUBESAT 2 21 Sep 19:34:41 19:38:27 34° 71° (ENE) 19:42:12 437.432
KKS-1 21 Sep 19:39:01 19:40:14 11° 299° (WNW) 19:41:26 437.445
Tancredo 1 21 Sep 19:42:20 19:44:32 23° 135° (SE) 19:46:45 437.200
UWE-3 21 Sep 19:45:05 19:49:12 51° 73° (ENE) 19:53:28 435.000/436.395/437.385
STRAND 1 21 Sep 19:53:28 19:58:15 38° 98° (E) 20:03:00 437.568
CUTE-I 21 Sep 19:54:21 19:57:15 15° 269° (W) 20:00:10 437.470
STARS 21 Sep 20:09:21 20:11:07 12° 298° (WNW) 20:12:52 437.465
AO-73 21 Sep 20:36:13 20:40:30 89° 265° (W) 20:44:57 145.935
ZACube-1 21 Sep 20:37:42 20:41:58 76° 257° (WSW) 20:46:24 437.345
Oscar 11 21 Sep 20:37:59 20:42:17 68° 75° (ENE) 20:46:38 .
SEEDS 21 Sep 20:41:31 20:44:28 18° 267° (W) 20:47:27 437.485
BEESAT 3 21 Sep 20:42:39 20:46:39 72° 302° (WNW) 20:50:41 437.485
ISS 21 Sep 20:44:43 20:46:56 17° 131° (SE) 20:49:10 437.550
BEESAT 2 21 Sep 20:45:03 20:48:41 34° 115° (ESE) 20:52:22 435.950
XW-2A 21 Sep 20:47:45 20:49:47 15° 267° (W) 20:51:49 145.665 - 145.685
EO-88 21 Sep 20:56:02 20:57:05 11° 65° (ENE) 20:58:09 145.990 - 145.960
NO-84 21 Sep 20:56:47 20:59:41 50° 40° (NE) 21:02:28 435.350 FM
AAUSAT CUBESAT 2 21 Sep 21:11:01 21:13:57 19° 267° (W) 21:16:55 437.432
Tancredo 1 21 Sep 21:16:37 21:19:01 27° 331° (NNW) 21:21:24 437.200
Max Valier Satellite 21 Sep 21:21:25 21:24:41 30° 71° (ENE) 21:27:58 145.860
DELFI C3 21 Sep 21:23:45 21:27:32 46° 74° (ENE) 21:31:21 145.870
AO-85 21 Sep 21:23:48 21:27:41 80° 302° (WNW) 21:31:37 145.980
UWE-3 21 Sep 21:23:58 21:26:00 13° 270° (W) 21:28:03 435.000/436.395/437.385
HO-68 21 Sep 21:26:16 21:27:50 11° 273° (W) 21:29:24 435.675
nSIGHT-1 21 Sep 21:27:19 21:30:28 53° 139° (SE) 21:33:38 .
STRAND 1 21 Sep 21:33:02 21:37:12 26° 294° (WNW) 21:41:23 437.568
UNISAT 6 21 Sep 21:54:13 21:57:43 20° 93° (E) 22:01:11 437.425
FO-29 21 Sep 22:07:28 22:12:55 78° 103° (ESE) 22:18:59 435.910
YUBILEINY 21 Sep 22:10:36 22:15:40 16° 61° (ENE) 22:20:42 435.215
TIGRISAT 21 Sep 22:17:59 22:22:12 33° 97° (E) 22:26:26 435.000
Oscar 11 21 Sep 22:18:47 22:18:51 10° 271° (W) 22:18:55 .
ISS 21 Sep 22:19:57 22:23:08 49° 327° (NNW) 22:26:21 437.550
BEESAT 2 21 Sep 22:23:17 22:26:30 22° 312° (NW) 22:29:44 435.950
EO-88 21 Sep 22:26:44 22:30:17 48° 261° (W) 22:33:52 145.990 - 145.960
ESTCUBE 1 21 Sep 22:27:37 22:30:26 16° 65° (ENE) 22:33:15 437.505/2401.250
SO-50 21 Sep 22:49:16 22:53:11 27° 48° (NE) 22:57:09 436.795
Max Valier Satellite 21 Sep 22:56:12 22:58:34 16° 267° (W) 23:00:56 145.860
DELFI C3 21 Sep 23:00:56 23:02:32 12° 269° (W) 23:04:08 145.870
nSIGHT-1 21 Sep 23:04:21 23:06:59 22° 336° (NNW) 23:09:37 .
PCSat 21 Sep 23:12:48 23:16:32 18° 45° (NE) 23:20:15 145.827
SPROUT 21 Sep 23:21:58 23:24:13 14° 64° (ENE) 23:26:27 437.525
AIST 2D 21 Sep 23:23:21 23:25:47 17° 94° (E) 23:28:10 435.315
LO-87 21 Sep 23:29:59 23:33:28 65° 258° (WSW) 23:37:00 145.935 - 145.965
UNISAT 6 21 Sep 23:30:10 23:34:30 39° 289° (WNW) 23:38:52 437.425
PRISM 21 Sep 23:31:11 23:35:13 66° 285° (WNW) 23:39:14 437.425
FO-29 21 Sep 23:54:43 23:57:30 14° 298° (WNW) 00:00:23 435.910
TIGRISAT 21 Sep 23:54:56 23:58:42 25° 292° (WNW) 00:02:29 435.000
ISS 21 Sep 23:58:21 00:00:14 14° 346° (NNW) 00:02:07 437.550
ESTCUBE 1 22 Sep 00:02:25 00:06:49 49° 261° (W) 00:11:14 437.505/2401.250
NANOSAT C BR1 22 Sep 00:04:17 00:07:25 20° 94° (E) 00:10:33 145.865
YUBILEINY 22 Sep 00:05:08 00:13:55 82° 82° (E) 00:22:41 435.215
DX 1 22 Sep 00:22:17 00:24:22 13° 63° (ENE) 00:26:27 434.975-435.025
SO-50 22 Sep 00:29:30 00:33:42 36° 245° (WSW) 00:37:56 436.795
DUCHIFAT 1 22 Sep 00:33:17 00:37:15 36° 98° (E) 00:41:09 145.980
VELOX 1 22 Sep 00:40:20 00:44:44 79° 76° (ENE) 00:49:08 145.980
nSIGHT-1 22 Sep 00:43:15 00:44:14 11° 356° (N) 00:45:15 .
POLYITAN 1 22 Sep 00:43:39 00:47:56 63° 101° (ESE) 00:52:10 437.675
EO-79 22 Sep 00:48:32 00:52:50 72° 103° (ESE) 00:57:05 145.935-145.965
PCSat 22 Sep 00:55:06 01:00:32 75° 243° (WSW) 01:05:54 145.827
SPROUT 22 Sep 00:55:33 00:59:39 50° 260° (W) 01:03:48 437.525
AIST 2D 22 Sep 00:56:00 00:58:56 25° 289° (WNW) 01:01:51 435.315
QB50P2 22 Sep 01:01:25 01:05:42 73° 285° (WNW) 01:09:58 145.880/145.840
BUGSAT 1 22 Sep 01:16:54 01:20:35 29° 97° (E) 01:24:17 437.445
50 SAT 22 Sep 01:19:23 01:22:41 72° 76° (ENE) 01:25:59 437.505
M-CUBED/EXP-1 PRIME 22 Sep 01:21:58 01:25:01 33° 103° (ESE) 01:27:58 437.505
ISS 22 Sep 01:36:33 01:37:49 12° 6° (N) 01:39:05 437.550
NANOSAT C BR1 22 Sep 01:39:20 01:43:11 33° 289° (WNW) 01:47:01 145.865
Gurwin Techsat 1B 22 Sep 01:44:16 01:48:01 19° 93° (E) 01:51:44 435.225
UKube-1 22 Sep 01:52:57 01:57:15 84° 77° (ENE) 02:01:34 .
DX 1 22 Sep 01:55:47 02:00:03 57° 259° (W) 02:04:20 434.975-435.025
BEESAT 22 Sep 02:00:28 02:02:38 13° 61° (ENE) 02:04:50 436.000
Tancredo 1 22 Sep 02:02:44 02:05:08 27° 29° (NNE) 02:07:31 437.200
YUBILEINY 22 Sep 02:03:54 02:09:34 20° 281° (WNW) 02:15:17 435.215
DUCHIFAT 1 22 Sep 02:09:38 02:12:37 19° 293° (WNW) 02:15:36 145.980
Oscar 19 22 Sep 02:14:16 02:19:22 55° 101° (E) 02:24:23 437.125/150
nSIGHT-1 22 Sep 02:19:38 02:21:40 15° 17° (NNE) 02:23:41 .
POLYITAN 1 22 Sep 02:21:32 02:23:09 12° 297° (WNW) 02:24:46 437.675
EO-79 22 Sep 02:27:10 02:27:58 10° 298° (WNW) 02:28:45 145.935-145.965
O/OREOS (USA 219) 22 Sep 02:39:59 02:44:16 46° 107° (ESE) 02:48:37 437.305
MOZHAYETS 4 22 Sep 02:46:50 02:50:59 34° 70° (ENE) 02:55:11
BUGSAT 1 22 Sep 02:52:29 02:55:46 23° 292° (WNW) 02:59:04 437.445
ITUPSAT 1 22 Sep 02:57:16 03:01:49 46° 71° (ENE) 03:06:24 437.325
M-CUBED/EXP-1 PRIME 22 Sep 02:57:41 02:59:09 12° 300° (WNW) 03:00:34 437.505
CUBESAT XI-V 22 Sep 03:10:10 03:12:27 14° 63° (ENE) 03:14:44 437.345
ISS 22 Sep 03:12:19 03:15:10 26° 26° (NNE) 03:18:01 437.550
ITAMSAT 1 22 Sep 03:16:56 03:19:18 13° 90° (E) 03:21:39 435.822/435.867
Gurwin Techsat 1B 22 Sep 03:23:05 03:28:14 51° 289° (WNW) 03:33:21 435.225
BEESAT 22 Sep 03:35:04 03:39:48 70° 257° (WSW) 03:44:34 436.000
Tancredo 1 22 Sep 03:37:21 03:39:36 23° 225° (SW) 03:41:50 437.200
AO-7 22 Sep 03:52:01 03:59:45 41° 100° (E) 04:07:25 .
Oscar 19 22 Sep 03:54:43 03:58:13 19° 297° (WNW) 04:01:40 437.125/150
nSIGHT-1 22 Sep 03:55:16 03:58:30 63° 35° (NE) 04:01:45 .
RS-15 22 Sep 04:09:37 04:18:25 24° 100° (E) 04:27:15 29.354- 29.394
AO-85 22 Sep 04:16:56 04:17:52 11° 39° (NE) 04:18:48 145.980
O/OREOS (USA 219) 22 Sep 04:20:51 04:23:56 18° 304° (NW) 04:27:03 437.305
MOZHAYETS 4 22 Sep 04:24:35 04:28:11 22° 266° (W) 04:31:50
ITUPSAT 1 22 Sep 04:36:40 04:39:52 18° 267° (W) 04:43:04 437.325
CUBESAT XI-V 22 Sep 04:44:34 04:49:14 66° 259° (WSW) 04:53:56 437.345
ISS 22 Sep 04:48:37 04:51:43 40° 224° (SW) 04:54:50 437.550
ITAMSAT 1 22 Sep 04:54:03 04:59:15 72° 286° (WNW) 05:04:26 435.822/435.867
KKS-1 22 Sep 04:56:55 05:01:16 62° 74° (ENE) 05:05:39 437.445
BEESAT 3 22 Sep 04:59:57 05:03:51 50° 55° (NE) 05:07:39 437.485
BEESAT 2 22 Sep 05:03:24 05:06:25 20° 46° (NE) 05:09:23 435.950
STARS 22 Sep 05:26:36 05:30:49 52° 73° (ENE) 05:35:03 437.465
nSIGHT-1 22 Sep 05:32:49 05:34:28 13° 231° (SW) 05:36:07 .
AO-7 22 Sep 05:44:47 05:52:29 45° 298° (WNW) 06:00:11 .
DOVE 4 22 Sep 05:49:50 05:53:49 41° 98° (E) 05:57:59 437.250
AO-85 22 Sep 05:54:32 05:58:59 69° 57° (ENE) 06:03:46 145.980
LilacSat-2 22 Sep 05:55:45 05:57:16 12° 91° (E) 05:58:45 437.200
RS-15 22 Sep 06:16:58 06:29:16 90° 300° (WNW) 06:41:41 29.354- 29.394
KAITUO 1B 22 Sep 06:20:06 06:22:30 16° 93° (E) 06:24:52 145.475/437.950
CUTE-I 22 Sep 06:29:36 06:34:07 27° 95° (E) 06:38:36 437.470
KKS-1 22 Sep 06:36:46 06:38:12 11° 269° (W) 06:39:38 437.445
BEESAT 3 22 Sep 06:39:02 06:40:56 13° 251° (WSW) 06:42:48 437.485
BEESAT 2 22 Sep 06:40:30 06:44:19 41° 244° (WSW) 06:48:05 435.950
XW-2D 22 Sep 06:44:18 06:48:00 46° 99° (E) 06:51:38 145.860 - 145.880
XW-2B 22 Sep 06:56:31 07:00:19 65° 101° (E) 07:04:04 145.730 - 145.750
XW-2F 22 Sep 06:57:58 07:01:45 64° 100° (E) 07:05:29 145.980 - 146.000
HO-68 22 Sep 07:01:16 07:06:43 23° 93° (E) 07:12:08 435.675
STARS 22 Sep 07:05:20 07:07:27 13° 268° (W) 07:09:33 437.465
STRAND 1 22 Sep 07:08:35 07:13:29 50° 71° (ENE) 07:18:25 437.568
CUTE 1.7 + AOD 2 22 Sep 07:14:10 07:17:14 19° 93° (E) 07:20:18 437.475
XW-2C 22 Sep 07:17:48 07:21:36 64° 284° (WNW) 07:25:20 145.795 - 145.815
CUBEBUG 2 22 Sep 07:25:25 07:28:24 17° 92° (E) 07:31:23 437.445
NUDT-PHONESAT 22 Sep 07:27:11 07:30:54 69° 284° (WNW) 07:34:35 437.300
LilacSat-2 22 Sep 07:28:05 07:31:46 44° 286° (WNW) 07:35:22 437.200
DOVE 4 22 Sep 07:28:33 07:31:15 17° 293° (WNW) 07:33:59 437.250
AO-85 22 Sep 07:36:49 07:38:57 13° 251° (WSW) 07:41:08 145.980
UWE-3 22 Sep 07:36:58 07:38:50 12° 90° (E) 07:40:42 435.000/436.395/437.385
KAITUO 1B 22 Sep 07:53:13 07:56:33 31° 288° (WNW) 07:59:50 145.475/437.950
XW-2A 22 Sep 08:08:32 08:11:37 30° 97° (E) 08:14:40 145.665 - 145.685
CUTE-I 22 Sep 08:09:20 08:14:11 37° 291° (WNW) 08:19:02 437.470
XW-2D 22 Sep 08:20:12 08:21:43 12° 295° (WNW) 08:23:15 145.860 - 145.880
FO-29 22 Sep 08:20:16 08:25:07 29° 68° (ENE) 08:29:38 435.910
SEEDS 22 Sep 08:24:14 08:28:26 77° 102° (ESE) 08:32:35 437.485
AO-73 22 Sep 08:25:27 08:28:47 20° 93° (E) 08:32:04 145.935
ZACube-1 22 Sep 08:26:59 08:30:39 23° 94° (E) 08:34:15 437.345
Oscar 11 22 Sep 08:27:32 08:29:35 13° 91° (E) 08:31:37 .
RS-15 22 Sep 08:32:49 08:43:35 33° 326° (NNW) 08:54:20 29.354- 29.394
HO-68 22 Sep 08:47:48 08:54:55 66° 290° (WNW) 09:02:01 435.675
CUTE 1.7 + AOD 2 22 Sep 08:49:19 08:53:08 33° 289° (WNW) 08:56:55 437.475
STRAND 1 22 Sep 08:49:29 08:52:55 18° 267° (W) 08:56:24 437.568
AAUSAT CUBESAT 2 22 Sep 08:52:04 08:56:11 70° 101° (ESE) 09:00:15 437.432
UNISAT 6 22 Sep 08:53:14 08:55:52 16° 64° (ENE) 08:58:32 437.425
CUBEBUG 2 22 Sep 09:00:41 09:05:13 49° 287° (WNW) 09:09:48 437.445
UWE-3 22 Sep 09:11:03 09:15:40 65° 285° (WNW) 09:20:18 435.000/436.395/437.385
TIGRISAT 22 Sep 09:16:19 09:19:52 25° 68° (ENE) 09:23:29 435.000
XW-2A 22 Sep 09:42:12 09:44:03 14° 293° (WNW) 09:45:53 145.665 - 145.685
EO-88 22 Sep 09:57:05 09:59:06 14° 93° (E) 10:01:06 145.990 - 145.960
AO-73 22 Sep 10:00:51 10:05:07 39° 289° (WNW) 10:09:20 145.935
Oscar 11 22 Sep 10:01:46 10:06:01 52° 286° (WNW) 10:10:12 .
ZACube-1 22 Sep 10:02:48 10:06:56 33° 290° (WNW) 10:11:02 437.345
FO-29 22 Sep 10:04:49 10:10:07 35° 262° (W) 10:15:01 435.910
PRISM 22 Sep 10:19:11 10:23:16 76° 75° (ENE) 10:27:22 437.425
Max Valier Satellite 22 Sep 10:25:03 10:28:41 45° 99° (E) 10:32:15 145.860
UNISAT 6 22 Sep 10:28:01 10:32:09 46° 261° (W) 10:36:25 437.425
DELFI C3 22 Sep 10:35:30 10:39:27 86° 103° (ESE) 10:43:20 145.870
HO-68 22 Sep 10:38:31 10:41:17 13° 309° (NW) 10:44:04 435.675
TIGRISAT 22 Sep 10:52:46 10:56:27 27° 265° (W) 11:00:13 435.000
RS-15 22 Sep 10:53:00 11:01:32 21° 1° (N) 11:09:54 29.354- 29.394
NANOSAT C BR1 22 Sep 10:56:37 10:58:49 14° 64° (ENE) 11:01:01 145.865
YUBILEINY 22 Sep 11:12:30 11:17:52 18° 78° (ENE) 11:23:12 435.215
DUCHIFAT 1 22 Sep 11:24:34 11:27:57 25° 68° (ENE) 11:31:22 145.980
AIST 2D 22 Sep 11:28:28 11:32:01 84° 256° (WSW) 11:35:35 435.315
EO-88 22 Sep 11:29:32 11:32:52 33° 288° (WNW) 11:36:09 145.990 - 145.960
POLYITAN 1 22 Sep 11:35:18 11:39:15 41° 72° (ENE) 11:43:15 437.675
EO-79 22 Sep 11:39:58 11:43:59 47° 73° (ENE) 11:48:03 145.935-145.965
QB50P2 22 Sep 11:52:49 11:57:00 75° 76° (ENE) 12:01:15 145.880/145.840
ESTCUBE 1 22 Sep 11:55:28 11:59:36 35° 97° (E) 12:03:41 437.505/2401.250
Max Valier Satellite 22 Sep 12:00:35 12:02:04 12° 295° (WNW) 12:03:34 145.860
M-CUBED/EXP-1 PRIME 22 Sep 12:06:01 12:10:11 47° 69° (ENE) 12:14:05 437.505
BUGSAT 1 22 Sep 12:06:34 12:09:22 19° 67° (ENE) 12:12:11 437.445
NO-84 22 Sep 12:14:37 12:15:08 10° 124° (ESE) 12:15:40 435.350 FM
NANOSAT C BR1 22 Sep 12:30:01 12:34:04 49° 260° (W) 12:38:11 145.865
LO-87 22 Sep 12:30:32 12:34:01 47° 286° (WNW) 12:37:29 145.935 - 145.965
VELOX 1 22 Sep 12:32:12 12:34:45 15° 92° (E) 12:37:18 145.980
SPROUT 22 Sep 12:41:52 12:45:31 27° 96° (E) 12:49:10 437.525
O/OREOS (USA 219) 22 Sep 12:50:20 12:54:57 82° 68° (ENE) 12:59:33 437.305
DUCHIFAT 1 22 Sep 13:00:01 13:03:30 26° 264° (W) 13:07:03 145.980
AO-7 22 Sep 13:04:25 13:07:08 12° 44° (NE) 13:09:51 .
Gurwin Techsat 1B 22 Sep 13:04:28 13:08:59 30° 67° (ENE) 13:13:33 435.225
YUBILEINY 22 Sep 13:04:42 13:13:26 86° 277° (W) 13:22:11 435.215
RS-15 22 Sep 13:08:23 13:19:13 36° 36° (NE) 13:29:31 29.354- 29.394
POLYITAN 1 22 Sep 13:12:41 13:15:12 15° 268° (W) 13:17:45 437.675
EO-79 22 Sep 13:17:51 13:20:00 14° 269° (W) 13:22:08 145.935-145.965
Oscar 19 22 Sep 13:30:14 13:35:25 75° 74° (ENE) 13:40:38 437.125/150
ESTCUBE 1 22 Sep 13:32:45 13:36:10 22° 293° (WNW) 13:39:34 437.505/2401.250
BUGSAT 1 22 Sep 13:40:51 13:44:28 32° 263° (W) 13:48:09 437.445
UKube-1 22 Sep 13:41:59 13:44:17 14° 92° (E) 13:46:34 .
M-CUBED/EXP-1 PRIME 22 Sep 13:42:11 13:44:42 15° 261° (W) 13:47:08 437.505
